Regional Weather Roundup
Issued by NWS Upton, NY

Current Version | Previous Version | Graphics & Text | Print | Product List | Glossary Off
Versions: 1 2 3 4 5 6 7 8 9 10 11 12 13 14 15 16 17 18 19 20 21 22 23 24 25 26 27

000
ASUS41 KOKX 261908
RWROKX

REGIONAL WEATHER ROUNDUP
NATIONAL WEATHER SERVICE NEW YORK NY
300 PM EDT SUN MAR 26 2017

NOTE: "FAIR" INDICATES FEW OR NO CLOUDS BELOW 12,000 FEET WITH NO
SIGNIFICANT WEATHER AND/OR OBSTRUCTIONS TO VISIBILITY.

NYZ071-072-176-178-NJZ106-104-262000-
NEW YORK CITY METRO AREA

CITY           SKY/WX    TMP DP  RH WIND       PRES   REMARKS
Central Park   CLOUDY    40  33  76 E8        30.45F WCI  34
Wall St Helipt CLOUDY    43  34  70 NE10      30.43F
LaGuardia APRT CLOUDY    42  33  70 NE14      30.43F
Kennedy INTL   CLOUDY    43  36  76 E14       30.43F
Breezy Point     N/A     41 N/A N/A E14G22      N/A
Newark/Liberty CLOUDY    44  34  67 E9        30.42F
Teterboro      CLOUDY    41  32  70 E12G21    30.43F
$$

NYZ177-179-078>081-262000-
LONG ISLAND NEW YORK

CITY           SKY/WX    TMP DP  RH WIND       PRES   REMARKS
Jones Beach      N/A     39 N/A N/A E22G28      N/A  WCI  29
Matinecock PT  NOT AVBL
Farmingdale    CLOUDY    42  34  73 E15       30.43F
MacArthur/ISP  LGT RAIN  41  34  76 E17       30.43F
Shirley        CLOUDY    41  34  76 E12       30.45F
Westhampton    CLOUDY    41  32  70 E9G21     30.45F
East Hampton   CLOUDY    40  34  78 E13G21    30.46F WCI  33
Montauk          N/A     41  35  79 E12G18    30.49F
$$

NYZ052-065-067-262000-
HUDSON VALLEY

CITY           SKY/WX    TMP DP  RH WIND       PRES   REMARKS
White Plains   LGT RAIN  38  31  76 E12       30.42F FOG     WCI  30
Newburgh       NOT AVBL
Montgomery     LGT RAIN  37  33  85 N8        30.42F WCI  31
Poughkeepsie   CLOUDY    38  29  70 E6        30.43F WCI  33
Albany         CLOUDY    38  27  64 SE10      30.44F WCI  31
$$

NJZ001-105-106-008-010-013-015-019>022-104-262000-
NEW JERSEY

CITY           SKY/WX    TMP DP  RH WIND       PRES   REMARKS
Newark/Liberty CLOUDY    44  34  67 E9        30.42F
Teterboro      CLOUDY    41  32  70 E12G21    30.43F
Caldwell       CLOUDY    40  33  76 E10       30.43F WCI  33
Somerville     CLOUDY    44  36  73 VRB6      30.39F
Linden         CLOUDY    43  33  68 SE13G20   30.43F
Sussex         CLOUDY    39  33  79 E8        30.41F WCI  33
Andover          N/A     38  33  82 NE5       30.39F WCI  34
Trenton        CLOUDY    42  37  82 E15       30.37F
Millville      CLOUDY    47  42  83 E16G22    30.34F
Atlantic City  CLOUDY    44  40  85 NE14G24   30.36S FOG
Wrightstown    CLOUDY    43  37  81 NE15      30.35F
Toms River     CLOUDY    42  39  89 E14G20    30.39F FOG
Belmar         CLOUDY    41  37  86 NE15      30.40F
$$

PAZ047>061-062-071-262000-
EASTERN PENNSYLVANIA

CITY           SKY/WX    TMP DP  RH WIND       PRES   REMARKS
Philadelphia   CLOUDY    45  39  79 E13       30.37F
Allentown      CLOUDY    44  34  67 E10       30.37F
Scranton       CLOUDY    39  34  82 E3        30.32F
$$

CTZ002-004>006-009-010-012-RIZ004-006-007-MAZ004-011-015-262000-
SOUTHERN NEW ENGLAND
 IN CT

CITY           SKY/WX    TMP DP  RH WIND       PRES   REMARKS
Bradley INTL   CLOUDY    40  28  62 CALM      30.47F
Hartford       CLOUDY    40  31  70 CALM      30.47F
Danbury        LGT RAIN  38  29  70 E13       30.44F WCI  30
Wtrbury/Oxford CLOUDY    36  28  75 E5        30.45F WCI  32
Bridgeport     CLOUDY    41  31  67 E13       30.46F
Meriden        CLOUDY    41  31  67 NE3       30.47F
New Haven      CLOUDY    41  33  73 E9G18     30.47F
Chester        NOT AVBL
Groton         CLOUDY    41  33  73 E14       30.48F
Wilimantic     CLOUDY    44  30  57 SE7       30.47F

 IN RI

CITY           SKY/WX    TMP DP  RH WIND       PRES   REMARKS
Providence     CLOUDY    42  28  57 SE13      30.50S
Block Island   CLOUDY    39  33  79 E15G21    30.49F WCI  31
Westerly       CLOUDY    41  33  73 E13       30.50F
 IN MA

CITY           SKY/WX    TMP DP  RH WIND       PRES   REMARKS
Boston         LGT RAIN  37  28  70 E12       30.53F WCI  29
Worcester      CLOUDY    36  25  64 E10       30.44F WCI  28
Westfield      CLOUDY    38  29  70 CALM      30.47F
Provincetown   CLOUDY    39  26  59 E14       30.52F WCI  31
Nantucket      CLOUDY    39  26  59 E16       30.50S WCI  30
$$

ANZ330-335-338-340-345-350-353-355-262000-
COASTAL MARINE OBSERVATIONS


STATION/POSITION TIME  SKY/WX   TEMP    WIND        PRES    VSBY  WAVE
                                AIR SEA DIR/SP/G                  HT/PER
                 (UTC)          (F)     (DEG/KT/KT) (MB)    (MI)  (FT/S)
NY HARB ENTRANCE 1750            40 42   60/ 17/ 19 1030.5          5/ 6
20 S FIRE ISLAND 1850            41 40   70/ 17/ 21 1029.0          5/ 6
GREAT SOUTH BAY  NOT AVBL
23 SSW MONTAUK P 1750            41 43              1032.0          4/ 5
15 E BARNEGAT LI 1830               43                N/A           6/ 7
HUDSON CANYON    1750            45 45   80/ 16/ 17 1028.8          5/ 6
KINGS POINT      1842            39 39              1030.4
EXECUTION ROCKS  NOT AVBL
CENTRAL LI SOUND 1830            39      90/ 12/ 14   N/A           2/ 4
EASTERN LI SOUND NOT AVBL
ROBBINS REEF     1848            42      90/ 17/ 19 1030.3
$$


>>>>>>>>>>>>>>>>>>>>>>>>>>>> KEY <<<<<<<<<<<<<<<<<<<<<<<<<<<
>                                                          <
>     SKY/WX - Sky Condition/Present Weather               <
>     TMP    - Temperature in Fahrenheit                   <
>     DP     - Dew Point in Fahrenheit                     <
>     RH     - Relative Humidity in Percent                <
>     WIND   - Direction (from) and Speed in MPH           <
>     PRES   - Mean Sea Level Pressure (inches of Hg)      <
>     WCI    - Wind Chill Index                            <
>     VSB    - VISIBILITY IN MILES                         <
>     HX     - HEAT INDEX                                  <
>     TC     - TEMPERATURE IN CELSIUS                      <
>     VRB    - VARIABLE WIND DIRECTION                     <
>                                                          <
>>>>>>>>>>>>>>>>>>>>>>>>>>>> KEY <<<<<<<<<<<<<<<<<<<<<<<<<<<




USA.gov is the U.S. government's official web portal to all federal, state and local government web resources and services.